Location: Dehesa de la Cepeda
(40.6574°N, 4.3013°W)
Time: 20:24:38
(UTC+00:00)

Vanguard 3 - Pass Details

Date: 02 August 2021
Orbit: 510 x 3260 km, 33.3° (Epoch: 22 September)

Event Time Altitude Azimuth Distance (km) Brightness Sun altitude
Rises 21:07:21 0° 271° (W) 6,350 12.5 -16.1°
Reaches altitude 10° 21:11:10 10° 269° (W) 5,597 12.1 -16.7°
Maximum altitude 21:29:16 64° 194° (SSW) 3,494 10.1 -19.2°
Enters shadow 21:42:47 24° 124° (SE) 4,805 10.4 -20.9°
